| time (UTC) | temp F | wind direction | speed knots | gust knots | rain 1hr in | rain 24hr in | rain mn in | humidity % | barometer mb |
| 20260903080004 | 62 | 0 | 0.0 | 0.0 | 0.00 | 0.00 | 0.00 | 95 | 922.4 |
| 20260903074504 | 62 | 0 | 0.0 | 0.0 | 0.00 | 0.00 | 0.00 | 95 | 922.4 |
| 20260903073504 | 62 | 0 | 0.0 | 0.0 | 0.00 | 0.00 | 0.00 | 95 | 922.4 |
| 20260903073004 | 62 | 0 | 0.0 | 0.0 | 0.00 | 0.00 | 0.00 | 95 | 922.5 |
| 20260903071504 | 62 | 0 | 0.0 | 0.0 | 0.00 | 0.00 | 0.00 | 95 | 922.4 |
| 20260903071004 | 62 | 0 | 0.0 | 0.0 | 0.00 | 0.00 | 0.00 | 95 | 922.3 |
| 20260903070504 | 62 | 0 | 0.0 | 0.0 | 0.00 | 0.00 | 0.00 | 95 | 922.3 |
| 20260903070004 | 62 | 0 | 0.0 | 0.0 | 0.00 | 0.00 | 0.00 | 95 | 922.4 |
| 20260903064504 | 62 | 0 | 0.0 | 0.0 | 0.00 | 0.00 | 0.00 | 95 | 922.4 |
| 20260903064004 | 62 | 0 | 0.0 | 0.0 | 0.00 | 0.00 | 0.00 | 95 | 922.3 |
| 20260903063503 | 62 | 0 | 0.0 | 0.0 | 0.00 | 0.00 | 0.00 | 95 | 922.4 |
| 20260903063004 | 62 | 0 | 0.0 | 0.0 | 0.00 | 0.00 | 0.00 | 95 | 922.4 |
| 20260903061504 | 62 | 0 | 0.0 | 0.0 | 0.00 | 0.00 | 0.00 | 95 | 922.4 |
| 20260903061004 | 63 | 0 | 0.0 | 0.0 | 0.00 | 0.00 | 0.00 | 95 | 922.5 |
| 20260903060504 | 63 | 0 | 0.0 | 0.0 | 0.00 | 0.00 | 0.00 | 95 | 922.5 |
| 20260903060004 | 63 | 0 | 0.0 | 0.0 | 0.00 | 0.00 | 0.00 | 95 | 922.5 |
| 20260903054006 | 63 | 0 | 0.0 | 0.0 | 0.00 | 0.00 | 0.00 | 95 | 922.7 |
| 20260903053505 | 63 | 0 | 0.0 | 0.0 | 0.00 | 0.00 | 0.00 | 95 | 922.6 |
| 20260903053006 | 63 | 0 | 0.0 | 0.0 | 0.00 | 0.00 | 0.00 | 95 | 922.6 |
| 20260903051505 | 64 | 0 | 0.0 | 0.0 | 0.00 | 0.00 | 0.00 | 95 | 922.7 |
| 20260903051006 | 64 | 0 | 0.0 | 0.0 | 0.00 | 0.00 | 0.00 | 95 | 922.7 |
| 20260903050007 | 64 | 0 | 0.0 | 0.0 | 0.00 | 0.00 | 0.00 | 95 | 922.7 |
| 20260903044509 | 64 | 0 | 0.0 | 0.0 | 0.00 | 0.00 | 0.00 | 95 | 922.8 |
| 20260903041005 | 64 | 0 | 0.0 | 0.0 | 0.00 | 0.00 | 0.00 | 95 | 923.0 |
| 20260903040506 | 64 | 0 | 0.0 | 0.0 | 0.00 | 0.00 | 0.00 | 95 | 923.0 |
| 20260903040008 | 64 | 0 | 0.0 | 0.0 | 0.00 | 0.00 | 0.00 | 95 | 923.0 |
| 20260903034505 | 65 | 0 | 0.0 | 0.0 | 0.00 | 0.00 | 0.00 | 95 | 923.2 |
| 20260903034006 | 65 | 0 | 0.0 | 0.0 | 0.00 | 0.00 | 0.00 | 95 | 923.2 |
| 20260903033505 | 65 | 0 | 0.0 | 0.0 | 0.00 | 0.00 | 0.00 | 95 | 923.2 |
| 20260903033005 | 65 | 0 | 0.0 | 0.0 | 0.00 | 0.00 | 0.00 | 95 | 923.2 |
| 20260903031005 | 65 | 0 | 0.0 | 0.0 | 0.00 | 0.00 | 0.00 | 95 | 923.4 |
| 20260903030505 | 66 | 0 | 0.0 | 0.0 | 0.00 | 0.00 | 0.00 | 95 | 923.5 |
| 20260903030004 | 66 | 0 | 0.0 | 0.0 | 0.00 | 0.00 | 0.00 | 95 | 923.5 |
| 20260903024505 | 66 | 0 | 0.0 | 0.0 | 0.00 | 0.00 | 0.00 | 95 | 923.6 |
| 20260903024005 | 66 | 0 | 0.0 | 0.0 | 0.00 | 0.00 | 0.00 | 95 | 923.6 |
| 20260903023504 | 66 | 0 | 0.0 | 0.0 | 0.00 | 0.00 | 0.00 | 95 | 923.5 |
| 20260903021505 | 67 | 0 | 0.0 | 0.0 | 0.00 | 0.00 | 0.00 | 95 | 923.6 |
| 20260903021005 | 67 | 0 | 0.0 | 0.0 | 0.00 | 0.00 | 0.00 | 95 | 923.6 |
| 20260903020505 | 67 | 0 | 0.0 | 0.0 | 0.00 | 0.00 | 0.00 | 95 | 923.6 |
| 20260903020005 | 67 | 0 | 0.0 | 0.0 | 0.00 | 0.00 | 0.00 | 94 | 923.6 |
| 20260903014505 | 67 | 0 | 0.0 | 0.0 | 0.00 | 0.00 | 0.00 | 94 | 923.6 |
| 20260903013505 | 67 | 0 | 0.0 | 0.0 | 0.00 | 0.00 | 0.00 | 94 | 923.6 |
| 20260903011505 | 68 | 0 | 0.0 | 0.0 | 0.00 | 0.00 | 0.00 | 93 | 923.2 |
| 20260903011005 | 68 | 0 | 0.0 | 0.0 | 0.00 | 0.00 | 0.00 | 93 | 923.2 |
| 20260903010505 | 68 | 0 | 0.0 | 0.0 | 0.00 | 0.00 | 0.00 | 92 | 923.1 |
| 20260903010005 | 68 | 0 | 0.0 | 0.0 | 0.00 | 0.00 | 0.00 | 92 | 923.1 |
| 20260903004505 | 69 | 0 | 0.0 | 0.0 | 0.00 | 0.00 | 0.00 | 91 | 922.7 |
| 20260903003505 | 70 | 0 | 0.0 | 0.0 | 0.00 | 0.00 | 0.00 | 91 | 922.6 |
| 20260903003004 | 71 | 0 | 0.0 | 0.0 | 0.00 | 0.00 | 0.00 | 90 | 922.5 |
| 20260903001504 | 72 | 0 | 0.0 | 0.0 | 0.00 | 0.00 | 0.00 | 91 | 922.7 |
| 20260903001004 | 72 | 0 | 0.0 | 0.0 | 0.00 | 0.00 | 0.00 | 89 | 922.1 |
| 20260903000004 | 73 | 0 | 0.0 | 0.0 | 0.00 | 0.00 | 0.00 | 88 | 922.0 |
| 20260902234505 | 75 | 0 | 0.0 | 0.0 | 0.00 | 0.00 | 0.00 | 86 | 921.4 |
| 20260902234004 | 76 | 0 | 0.0 | 0.0 | 0.00 | 0.00 | 0.00 | 85 | 921.3 |
| 20260902233504 | 76 | 0 | 0.0 | 0.0 | 0.00 | 0.00 | 0.00 | 84 | 921.0 |
| 20260902233006 | 77 | 0 | 0.0 | 0.0 | 0.00 | 0.00 | 0.00 | 83 | 921.0 |
| 20260902231504 | 81 | 0 | 0.0 | 0.0 | 0.00 | 0.00 | 0.00 | 78 | 921.2 |
| 20260902230504 | 84 | 0 | 0.0 | 0.0 | 0.00 | 0.00 | 0.00 | 73 | 922.8 |
| 20260902230004 | 85 | 0 | 0.0 | 0.0 | 0.00 | 0.00 | 0.00 | 71 | 923.5 |
| 20260902224504 | 87 | 0 | 0.0 | 0.0 | 0.00 | 0.00 | 0.00 | 68 | 924.8 |
| 20260902224005 | 87 | 0 | 0.0 | 0.0 | 0.00 | 0.00 | 0.00 | 65 | 925.8 |
| 20260902223005 | 89 | 0 | 0.0 | 0.0 | 0.00 | 0.00 | 0.00 | 64 | 926.4 |
| 20260902221505 | 90 | 0 | 0.0 | 0.0 | 0.00 | 0.00 | 0.00 | 57 | 928.4 |
| 20260902221004 | 90 | 0 | 0.0 | 0.0 | 0.00 | 0.00 | 0.00 | 58 | 928.5 |
| 20260902220504 | 90 | 0 | 0.0 | 0.0 | 0.00 | 0.00 | 0.00 | 59 | 928.4 |
| 20260902220004 | 91 | 0 | 0.0 | 0.0 | 0.00 | 0.00 | 0.00 | 54 | 928.8 |
| 20260902214504 | 91 | 0 | 0.0 | 0.0 | 0.00 | 0.00 | 0.00 | 55 | 928.9 |
| 20260902214004 | 91 | 0 | 0.0 | 0.0 | 0.00 | 0.00 | 0.00 | 54 | 928.6 |
| 20260902213005 | 90 | 0 | 0.0 | 0.0 | 0.00 | 0.00 | 0.00 | 54 | 928.9 |
| 20260902211504 | 90 | 0 | 0.0 | 0.0 | 0.00 | 0.00 | 0.00 | 51 | 928.9 |
| 20260902211003 | 89 | 0 | 0.0 | 0.0 | 0.00 | 0.00 | 0.00 | 51 | 928.9 |
| 20260902210504 | 89 | 0 | 0.0 | 0.0 | 0.00 | 0.00 | 0.00 | 51 | 928.9 |
| 20260902210004 | 89 | 0 | 0.0 | 0.0 | 0.00 | 0.00 | 0.00 | 52 | 929.0 |
| 20260902204505 | 90 | 0 | 0.0 | 0.0 | 0.00 | 0.00 | 0.00 | 50 | 929.0 |
| 20260902204005 | 90 | 0 | 0.0 | 0.0 | 0.00 | 0.00 | 0.00 | 52 | 929.1 |
| 20260902203505 | 91 | 0 | 0.0 | 0.0 | 0.00 | 0.00 | 0.00 | 52 | 929.1 |
| 20260902201505 | 91 | 0 | 0.0 | 0.0 | 0.00 | 0.00 | 0.00 | 50 | 929.4 |
| 20260902201005 | 90 | 0 | 0.0 | 0.0 | 0.00 | 0.00 | 0.00 | 51 | 929.3 |
| 20260902200006 | 88 | 0 | 0.0 | 0.0 | 0.00 | 0.00 | 0.00 | 57 | 929.2 |
| 20260902194505 | 88 | 0 | 0.0 | 0.0 | 0.00 | 0.00 | 0.00 | 53 | 929.4 |
| 20260902194005 | 89 | 0 | 0.0 | 0.0 | 0.00 | 0.00 | 0.00 | 54 | 929.4 |
| 20260902193505 | 88 | 0 | 0.0 | 0.0 | 0.00 | 0.00 | 0.00 | 58 | 928.7 |
| 20260902191505 | 87 | 0 | 0.0 | 0.0 | 0.00 | 0.00 | 0.00 | 59 | 929.1 |
| 20260902191006 | 86 | 0 | 0.0 | 0.0 | 0.00 | 0.00 | 0.00 | 62 | 927.9 |
| 20260902190505 | 86 | 0 | 0.0 | 0.0 | 0.00 | 0.00 | 0.00 | 66 | 927.4 |
| 20260902190005 | 85 | 0 | 0.0 | 0.0 | 0.00 | 0.00 | 0.00 | 59 | 929.0 |
| 20260902184505 | 85 | 0 | 0.0 | 0.0 | 0.00 | 0.00 | 0.00 | 70 | 925.8 |
| 20260902183505 | 85 | 0 | 0.0 | 0.0 | 0.00 | 0.00 | 0.00 | 63 | 928.5 |
| 20260902183005 | 85 | 0 | 0.0 | 0.0 | 0.00 | 0.00 | 0.00 | 57 | 929.4 |
| 20260902181505 | 85 | 0 | 0.0 | 0.0 | 0.00 | 0.00 | 0.00 | 60 | 929.5 |
| 20260902181005 | 85 | 0 | 0.0 | 0.0 | 0.00 | 0.00 | 0.00 | 60 | 928.7 |
| 20260902180505 | 84 | 0 | 0.0 | 0.0 | 0.00 | 0.00 | 0.00 | 62 | 928.8 |
| 20260902180007 | 85 | 0 | 0.0 | 0.0 | 0.00 | 0.00 | 0.00 | 62 | 929.0 |
| 20260902174505 | 85 | 0 | 0.0 | 0.0 | 0.00 | 0.00 | 0.00 | 61 | 929.4 |
| 20260902173505 | 84 | 0 | 0.0 | 0.0 | 0.00 | 0.00 | 0.00 | 64 | 928.8 |
| 20260902171505 | 86 | 0 | 0.0 | 0.0 | 0.00 | 0.00 | 0.00 | 60 | 929.8 |
| 20260902171005 | 86 | 0 | 0.0 | 0.0 | 0.00 | 0.00 | 0.00 | 61 | 929.4 |
| 20260902170505 | 86 | 0 | 0.0 | 0.0 | 0.00 | 0.00 | 0.00 | 60 | 929.6 |
| 20260902170005 | 85 | 0 | 0.0 | 0.0 | 0.00 | 0.00 | 0.00 | 66 | 927.2 |
| 20260902164004 | 86 | 0 | 0.0 | 0.0 | 0.00 | 0.00 | 0.00 | 62 | 929.4 |
| 20260902163506 | 86 | 0 | 0.0 | 0.0 | 0.00 | 0.00 | 0.00 | 60 | 929.9 |
| 20260902163005 | 87 | 0 | 0.0 | 0.0 | 0.00 | 0.00 | 0.00 | 60 | 928.8 |
| 20260902161505 | 87 | 0 | 0.0 | 0.0 | 0.00 | 0.00 | 0.00 | 62 | 929.2 |
| 20260902161004 | 86 | 0 | 0.0 | 0.0 | 0.00 | 0.00 | 0.00 | 65 | 929.0 |
| 20260902160505 | 85 | 0 | 0.0 | 0.0 | 0.00 | 0.00 | 0.00 | 64 | 929.2 |
| 20260902160007 | 85 | 0 | 0.0 | 0.0 | 0.00 | 0.00 | 0.00 | 62 | 927.7 |
| 20260902154505 | 85 | 0 | 0.0 | 0.0 | 0.00 | 0.00 | 0.00 | 64 | 926.8 |
| 20260902153505 | 86 | 0 | 0.0 | 0.0 | 0.00 | 0.00 | 0.00 | 61 | 929.9 |
| 20260902153004 | 85 | 0 | 0.0 | 0.0 | 0.00 | 0.00 | 0.00 | 64 | 929.0 |
| 20260902151504 | 84 | 0 | 0.0 | 0.0 | 0.00 | 0.00 | 0.00 | 72 | 925.5 |
| 20260902151005 | 83 | 0 | 0.0 | 0.0 | 0.00 | 0.00 | 0.00 | 72 | 926.7 |
| 20260902150505 | 83 | 0 | 0.0 | 0.0 | 0.00 | 0.00 | 0.00 | 71 | 925.9 |
| 20260902144004 | 83 | 0 | 0.0 | 0.0 | 0.00 | 0.00 | 0.00 | 74 | 926.1 |
| 20260902143504 | 82 | 0 | 0.0 | 0.0 | 0.00 | 0.00 | 0.00 | 74 | 925.4 |
| 20260902143004 | 82 | 0 | 0.0 | 0.0 | 0.00 | 0.00 | 0.00 | 75 | 924.0 |
| 20260902141004 | 78 | 0 | 0.0 | 0.0 | 0.00 | 0.00 | 0.00 | 81 | 922.3 |
| 20260902140504 | 77 | 0 | 0.0 | 0.0 | 0.00 | 0.00 | 0.00 | 85 | 921.6 |
| 20260902140004 | 76 | 0 | 0.0 | 0.0 | 0.00 | 0.00 | 0.00 | 88 | 921.6 |
| 20260902134505 | 74 | 0 | 0.0 | 0.0 | 0.00 | 0.00 | 0.00 | 93 | 922.2 |
| 20260902134004 | 74 | 0 | 0.0 | 0.0 | 0.00 | 0.00 | 0.00 | 95 | 923.5 |
| 20260902133504 | 73 | 0 | 0.0 | 0.0 | 0.00 | 0.00 | 0.00 | 95 | 923.6 |
| 20260902131504 | 70 | 0 | 0.0 | 0.0 | 0.00 | 0.00 | 0.00 | 96 | 925.1 |
| 20260902131004 | 69 | 0 | 0.0 | 0.0 | 0.00 | 0.00 | 0.00 | 96 | 924.8 |
| 20260902130504 | 68 | 0 | 0.0 | 0.0 | 0.00 | 0.00 | 0.00 | 96 | 924.5 |
| 20260902130004 | 66 | 0 | 0.0 | 0.0 | 0.00 | 0.00 | 0.00 | 96 | 924.3 |
| 20260902124504 | 63 | 0 | 0.0 | 0.0 | 0.00 | 0.00 | 0.00 | 95 | 923.7 |
| 20260902124004 | 62 | 0 | 0.0 | 0.0 | 0.00 | 0.00 | 0.00 | 95 | 923.6 |
| 20260902123504 | 62 | 0 | 0.0 | 0.0 | 0.00 | 0.00 | 0.00 | 95 | 923.5 |
| 20260902123004 | 61 | 0 | 0.0 | 0.0 | 0.00 | 0.00 | 0.00 | 95 | 923.4 |
| 20260902121003 | 60 | 0 | 0.0 | 0.0 | 0.00 | 0.00 | 0.00 | 95 | 923.3 |
| 20260902120504 | 60 | 0 | 0.0 | 0.0 | 0.00 | 0.00 | 0.00 | 95 | 923.2 |
| 20260902120004 | 60 | 0 | 0.0 | 0.0 | 0.00 | 0.00 | 0.00 | 95 | 923.2 |
| 20260902114005 | 59 | 0 | 0.0 | 0.0 | 0.00 | 0.00 | 0.00 | 95 | 923.2 |
| 20260902113506 | 59 | 0 | 0.0 | 0.0 | 0.00 | 0.00 | 0.00 | 95 | 923.2 |
| 20260902113006 | 59 | 0 | 0.0 | 0.0 | 0.00 | 0.00 | 0.00 | 95 | 923.2 |
| 20260902111505 | 59 | 0 | 0.0 | 0.0 | 0.00 | 0.00 | 0.00 | 95 | 923.1 |
| 20260902111005 | 59 | 0 | 0.0 | 0.0 | 0.00 | 0.00 | 0.00 | 95 | 923.1 |
| 20260902110008 | 59 | 0 | 0.0 | 0.0 | 0.00 | 0.00 | 0.00 | 95 | 923.0 |
| 20260902104505 | 60 | 0 | 0.0 | 0.0 | 0.00 | 0.00 | 0.00 | 95 | 923.0 |
| 20260902104005 | 60 | 0 | 0.0 | 0.0 | 0.00 | 0.00 | 0.00 | 95 | 922.9 |
| 20260902103506 | 60 | 0 | 0.0 | 0.0 | 0.00 | 0.00 | 0.00 | 95 | 922.9 |
| 20260902101506 | 60 | 0 | 0.0 | 0.0 | 0.00 | 0.00 | 0.00 | 95 | 922.7 |
| 20260902101005 | 60 | 0 | 0.0 | 0.0 | 0.00 | 0.00 | 0.00 | 95 | 922.7 |
| 20260902100505 | 60 | 0 | 0.0 | 0.0 | 0.00 | 0.00 | 0.00 | 95 | 922.7 |
| 20260902100005 | 60 | 0 | 0.0 | 0.0 | 0.00 | 0.00 | 0.00 | 95 | 922.8 |
| 20260902094505 | 60 | 0 | 0.0 | 0.0 | 0.00 | 0.00 | 0.00 | 95 | 922.8 |
| 20260902093505 | 60 | 0 | 0.0 | 0.0 | 0.00 | 0.00 | 0.00 | 95 | 922.8 |
| 20260902093005 | 60 | 0 | 0.0 | 0.0 | 0.00 | 0.00 | 0.00 | 95 | 922.8 |
| 20260902091005 | 61 | 0 | 0.0 | 0.0 | 0.00 | 0.00 | 0.00 | 95 | 922.8 |
| 20260902090005 | 61 | 0 | 0.0 | 0.0 | 0.00 | 0.00 | 0.00 | 95 | 922.9 |
| 20260902083004 | 61 | 0 | 0.0 | 0.0 | 0.00 | 0.00 | 0.00 | 95 | 922.9 |
| 20260902081504 | 61 | 0 | 0.0 | 0.0 | 0.00 | 0.00 | 0.00 | 95 | 922.9 |